Home   Weather   Besançon   Past weeks

Flag for France Past Weather in Besançon, Franche-Comté, France — Yesterday and Last 2 Weeks

59 °F


Feels Like: 57 °F
Forecast: 51 / 69 °F
Wind: 9 mph from South

Location: Dole Tavaux

Current Time: Oct 23, 2016 at 10:28:54 PM

Latest Report: Oct 23, 2016 at 10:00 PM

Visibility: 10 mi

Pressure: 29.80 "Hg

Humidity: 88%

Dew Point: 55 °F

Location of BesançonLocation

Past Weather in Besançon — Graph


Besançon Temperature Yesterday

Maximum temperature yesterday: 57 °F (at 3:30 PM)
Minimum temperature yesterday: 34 °F (at 5:00 AM)
Average temperature yesterday: 44 °F

High & Low Weather Summary for the Past Weeks

High66 °F (Oct 16, 2:30 PM)100% (Oct 9, 3:00 AM)30.30 "Hg (Oct 9, 3:00 AM)
Low34 °F (Oct 10, 2:00 AM)44% (Oct 11, 5:00 PM)29.59 "Hg (Oct 14, 8:30 AM)
Average49 °F85%30.03 "Hg
* Reported Oct 8 9:00 PM — Oct 23 9:00 PM, Besançon, Weather by CustomWeather, © 2016

Note: Actual official high and low records may vary slightly from our data, if they occured in-between our weather recording intervals... More about our weather records


Besançon Weather History for the Previous 24 Hours

Scroll right to see more
Time TempWeatherWind HumidityBarometerVisibility
9:00 PM
Sun, Oct 23
54 °FClear.5 mph88%29.80 "Hg10 mi
8:30 PM54 °FClear.6 mph94%29.80 "Hg10 mi
8:00 PM55 °FClear.5 mph88%29.80 "Hg10 mi
7:30 PM55 °FSunny.6 mph88%29.77 "Hg10 mi
7:00 PM55 °FSunny.6 mph88%29.77 "Hg10 mi
6:30 PM55 °FSunny.5 mph88%29.77 "Hg10 mi
6:00 PM57 °FSunny.3 mph82%29.77 "Hg10 mi
5:30 PM57 °FOvercast.5 mph82%29.77 "HgN/A
5:00 PM57 °FSunny.6 mph82%29.77 "Hg10 mi
4:30 PM59 °FPartly sunny.6 mph77%29.77 "HgN/A
4:00 PM59 °FOvercast.6 mph77%29.77 "HgN/A
3:30 PM57 °FCloudy.3 mph82%29.77 "HgN/A
3:00 PM57 °FPartly sunny.5 mph82%29.77 "HgN/A
2:30 PM55 °FMostly cloudy.5 mph88%29.77 "HgN/A
2:00 PM55 °FOvercast.5 mph82%29.77 "HgN/A
1:30 PM54 °FMostly cloudy.3 mph88%29.80 "HgN/A
1:00 PM54 °FMostly cloudy.5 mph88%29.80 "HgN/A
12:30 PM52 °FMostly cloudy.3 mph88%29.80 "HgN/A
12:00 PM50 °FMore clouds than sun.6 mph94%29.80 "HgN/A
11:30 AM48 °FMostly cloudy.5 mph94%29.80 "HgN/A
11:00 AM48 °FOvercast.3 mph94%29.80 "HgN/A
10:30 AM48 °FOvercast.3 mph87%29.83 "HgN/A
10:00 AM46 °FCloudy.5 mph93%29.83 "HgN/A
9:30 AM45 °FLight rain. Mostly cloudy.2 mph93%29.83 "HgN/A
9:00 AM45 °FLight rain. Overcast.2 mph93%29.80 "HgN/A
8:30 AM45 °FOvercast.2 mph93%29.80 "HgN/A
8:00 AM45 °FOvercast.1 mph87%29.80 "HgN/A
7:30 AM45 °FOvercast.No wind87%29.80 "HgN/A
7:00 AM43 °FOvercast.2 mph93%29.80 "HgN/A
6:30 AM45 °FMostly cloudy.No wind87%29.80 "HgN/A
6:00 AM43 °FMostly cloudy.No wind93%29.80 "HgN/A
5:30 AM43 °FMostly cloudy.3 mph93%29.83 "HgN/A
5:00 AM41 °FMostly cloudy.3 mph100%29.83 "HgN/A
4:30 AM41 °FPassing clouds.5 mph93%29.83 "HgN/A
4:00 AM43 °FPassing clouds.5 mph93%29.83 "HgN/A
3:30 AM43 °FPassing clouds.5 mph93%29.86 "HgN/A
3:00 AM43 °FPassing clouds.5 mph93%29.86 "HgN/A
2:30 AM41 °FPassing clouds.5 mph100%29.86 "HgN/A
2:00 AM41 °FClear.5 mph93%29.86 "Hg10 mi
1:30 AM41 °FClear.7 mph93%29.86 "Hg10 mi
1:00 AM41 °FClear.5 mph93%29.86 "Hg10 mi
12:30 AM41 °FClear.5 mph93%29.89 "Hg10 mi
12:00 AM41 °FClear.3 mph93%29.89 "Hg10 mi
11:30 PM
Sat, Oct 22
43 °FClear.2 mph87%29.89 "Hg10 mi
11:00 PM45 °FClear.3 mph87%29.89 "Hg10 mi
10:30 PM43 °FClear.5 mph93%29.89 "Hg10 mi
10:00 PM45 °FClear.6 mph87%29.89 "Hg10 mi
Weather by CustomWeather, © 2016

See weather overviewHow to use our weather pages